Time,TemperatureF,DewpointF,PressureIn,WindDirection,WindDirectionDegrees,WindSpeedMPH,WindSpeedGustMPH,Humidity,HourlyPrecipIn,Conditions,Clouds,dailyrainin,SoftwareType,DateUTC
2014-07-13 00:00:00,76.3,71.4,29.95,North,0,0.0,0.0,85,0.00,CLR,,0.00,WeatherDisplay:10.37,2014-07-13 04:00:00,
2014-07-13 00:01:00,76.3,71.4,29.95,North,0,0.0,0.0,85,0.00,CLR,,0.00,WeatherDisplay:10.37,2014-07-13 04:01:00,
2014-07-13 00:02:00,76.5,71.6,29.95,North,0,0.0,0.0,85,0.00,CLR,,0.00,WeatherDisplay:10.37,2014-07-13 04:02:00,
2014-07-13 00:07:00,76.5,71.6,29.95,North,0,0.0,0.0,85,0.00,CLR,,0.00,WeatherDisplay:10.37,2014-07-13 04:07:00,
2014-07-13 00:12:00,76.5,71.3,29.95,North,0,0.0,0.0,84,0.00,CLR,,0.00,WeatherDisplay:10.37,2014-07-13 04:12:00,
2014-07-13 00:17:00,76.5,71.6,29.95,North,0,0.0,0.0,85,0.00,CLR,,0.00,WeatherDisplay:10.37,2014-07-13 04:17:00,
2014-07-13 00:22:00,76.5,71.6,29.96,North,0,0.0,0.0,85,0.00,CLR,,0.00,WeatherDisplay:10.37,2014-07-13 04:22:00,
2014-07-13 00:27:00,76.3,71.4,29.95,North,0,0.0,0.0,85,0.00,CLR,,0.00,WeatherDisplay:10.37,2014-07-13 04:27:00,
2014-07-13 00:32:00,76.3,71.8,29.96,North,0,0.0,0.0,86,0.00,CLR,,0.00,WeatherDisplay:10.37,2014-07-13 04:32:00,
2014-07-13 00:37:00,76.3,71.8,29.95,North,0,0.0,0.0,86,0.00,CLR,,0.00,WeatherDisplay:10.37,2014-07-13 04:37:00,
2014-07-13 00:42:00,75.9,71.4,29.95,North,0,0.0,0.0,86,0.00,CLR,,0.00,WeatherDisplay:10.37,2014-07-13 04:42:00,
2014-07-13 00:47:00,75.9,71.8,29.95,North,0,0.0,0.0,87,0.00,CLR,,0.00,WeatherDisplay:10.37,2014-07-13 04:47:00,
2014-07-13 00:52:00,75.9,72.1,29.96,North,0,0.0,0.0,88,0.00,CLR,,0.00,WeatherDisplay:10.37,2014-07-13 04:52:00,
2014-07-13 00:57:00,75.9,72.1,29.96,North,0,0.0,0.0,88,0.00,CLR,,0.00,WeatherDisplay:10.37,2014-07-13 04:57:00,
2014-07-13 01:02:00,75.7,71.9,29.96,North,0,0.0,0.0,88,0.00,CLR,,0.00,WeatherDisplay:10.37,2014-07-13 05:02:00,
2014-07-13 01:07:00,75.7,71.9,29.95,North,0,0.0,0.0,88,0.00,CLR,,0.00,WeatherDisplay:10.37,2014-07-13 05:07:00,
2014-07-13 01:12:00,75.7,71.9,29.95,North,0,0.0,0.0,88,0.00,CLR,,0.00,WeatherDisplay:10.37,2014-07-13 05:12:00,
2014-07-13 01:17:00,75.6,71.8,29.96,North,0,0.0,0.0,88,0.00,CLR,,0.00,WeatherDisplay:10.37,2014-07-13 05:17:00,
2014-07-13 01:22:00,75.4,71.6,29.96,North,0,0.0,0.0,88,0.00,CLR,,0.00,WeatherDisplay:10.37,2014-07-13 05:22:00,
2014-07-13 01:27:00,75.4,71.9,29.95,North,0,0.0,0.0,89,0.00,CLR,,0.00,WeatherDisplay:10.37,2014-07-13 05:27:00,
2014-07-13 01:32:00,75.4,71.9,29.95,North,0,0.0,0.0,89,0.00,CLR,,0.00,WeatherDisplay:10.37,2014-07-13 05:32:00,
2014-07-13 01:37:00,75.4,72.2,29.95,North,0,0.0,0.0,90,0.00,CLR,,0.00,WeatherDisplay:10.37,2014-07-13 05:37:00,
2014-07-13 01:42:00,75.2,72.1,29.95,North,0,0.0,0.0,90,0.00,CLR,,0.00,WeatherDisplay:10.37,2014-07-13 05:42:00,
2014-07-13 01:47:00,75.4,72.6,29.95,North,0,0.0,0.0,91,0.00,CLR,,0.00,WeatherDisplay:10.37,2014-07-13 05:47:00,
2014-07-13 01:52:00,75.2,72.4,29.95,North,0,0.0,0.0,91,0.00,CLR,,0.00,WeatherDisplay:10.37,2014-07-13 05:52:00,
2014-07-13 01:57:00,75.2,72.4,29.94,North,0,0.0,0.0,91,0.00,CLR,,0.00,WeatherDisplay:10.37,2014-07-13 05:57:00,
2014-07-13 02:02:00,75.2,72.4,29.94,North,0,0.0,0.0,91,0.00,CLR,,0.00,WeatherDisplay:10.37,2014-07-13 06:02:00,
2014-07-13 02:07:00,75.4,72.2,29.95,North,0,0.0,0.0,90,0.00,CLR,,0.00,WeatherDisplay:10.37,2014-07-13 06:07:00,
2014-07-13 02:12:00,75.4,72.2,29.95,North,0,0.0,0.0,90,0.00,CLR,,0.00,WeatherDisplay:10.37,2014-07-13 06:12:00,
2014-07-13 02:17:00,75.4,72.2,29.94,North,0,0.0,0.0,90,0.00,CLR,,0.00,WeatherDisplay:10.37,2014-07-13 06:17:00,
2014-07-13 02:22:00,75.4,72.2,29.94,North,0,0.0,0.0,90,0.00,CLR,,0.00,WeatherDisplay:10.37,2014-07-13 06:22:00,
2014-07-13 02:27:00,75.4,72.2,29.94,North,0,0.0,0.0,90,0.00,CLR,,0.00,WeatherDisplay:10.37,2014-07-13 06:27:00,
2014-07-13 02:32:00,75.4,72.2,29.93,North,0,0.0,0.0,90,0.00,CLR,,0.00,WeatherDisplay:10.37,2014-07-13 06:32:00,
2014-07-13 02:37:00,75.4,72.6,29.93,North,0,0.0,0.0,91,0.00,CLR,,0.00,WeatherDisplay:10.37,2014-07-13 06:37:00,
2014-07-13 02:42:00,75.2,72.1,29.93,North,0,0.0,0.0,90,0.00,CLR,,0.00,WeatherDisplay:10.37,2014-07-13 06:42:00,
2014-07-13 02:47:00,75.2,72.4,29.92,North,0,0.0,0.0,91,0.00,CLR,,0.00,WeatherDisplay:10.37,2014-07-13 06:47:00,
2014-07-13 02:52:00,75.2,72.4,29.92,North,0,0.0,0.0,91,0.00,CLR,,0.00,WeatherDisplay:10.37,2014-07-13 06:52:00,
2014-07-13 02:57:00,75.2,72.1,29.92,North,0,0.0,0.0,90,0.00,CLR,,0.00,WeatherDisplay:10.37,2014-07-13 06:57:00,
2014-07-13 03:02:00,75.4,72.2,29.92,North,0,0.0,0.0,90,0.00,CLR,,0.00,WeatherDisplay:10.37,2014-07-13 07:02:00,
2014-07-13 03:07:00,75.4,72.2,29.92,North,0,0.0,0.0,90,0.00,CLR,,0.00,WeatherDisplay:10.37,2014-07-13 07:07:00,
2014-07-13 03:12:00,75.4,72.2,29.92,North,0,0.0,0.0,90,0.00,CLR,,0.00,WeatherDisplay:10.37,2014-07-13 07:12:00,
2014-07-13 03:17:00,75.4,72.2,29.92,North,0,0.0,0.0,90,0.00,CLR,,0.00,WeatherDisplay:10.37,2014-07-13 07:17:00,
2014-07-13 03:22:00,75.4,72.2,29.92,North,0,0.0,0.0,90,0.00,CLR,,0.00,WeatherDisplay:10.37,2014-07-13 07:22:00,
2014-07-13 03:27:00,75.4,72.2,29.91,North,0,0.0,0.0,90,0.00,CLR,,0.00,WeatherDisplay:10.37,2014-07-13 07:27:00,
2014-07-13 03:32:00,75.2,72.1,29.91,North,0,0.0,0.0,90,0.00,CLR,,0.00,WeatherDisplay:10.37,2014-07-13 07:32:00,
2014-07-13 03:37:00,75.2,72.1,29.91,North,0,0.0,0.0,90,0.00,CLR,,0.00,WeatherDisplay:10.37,2014-07-13 07:37:00,
2014-07-13 03:42:00,75.2,71.7,29.91,North,0,0.0,0.0,89,0.00,CLR,,0.00,WeatherDisplay:10.37,2014-07-13 07:42:00,
2014-07-13 03:47:00,75.2,71.7,29.91,North,0,0.0,0.0,89,0.00,CLR,,0.00,WeatherDisplay:10.37,2014-07-13 07:47:00,
2014-07-13 03:52:00,75.2,71.7,29.91,North,0,0.0,0.0,89,0.00,CLR,,0.00,WeatherDisplay:10.37,2014-07-13 07:52:00,
2014-07-13 03:57:00,75.0,71.6,29.91,North,0,0.0,0.0,89,0.00,CLR,,0.00,WeatherDisplay:10.37,2014-07-13 07:57:00,
2014-07-13 04:02:00,75.0,71.6,29.91,North,0,0.0,0.0,89,0.00,CLR,,0.00,WeatherDisplay:10.37,2014-07-13 08:02:00,
2014-07-13 04:07:00,75.0,71.6,29.91,North,0,0.0,0.0,89,0.00,CLR,,0.00,WeatherDisplay:10.37,2014-07-13 08:07:00,
2014-07-13 04:12:00,75.0,71.9,29.91,North,0,0.0,0.0,90,0.00,CLR,,0.00,WeatherDisplay:10.37,2014-07-13 08:12:00,
2014-07-13 04:17:00,74.8,71.7,29.91,North,0,0.0,0.0,90,0.00,CLR,,0.00,WeatherDisplay:10.37,2014-07-13 08:17:00,
2014-07-13 04:22:00,74.8,71.7,29.91,North,0,0.0,0.0,90,0.00,CLR,,0.00,WeatherDisplay:10.37,2014-07-13 08:22:00,
2014-07-13 04:27:00,74.8,71.7,29.91,North,0,0.0,0.0,90,0.00,CLR,,0.00,WeatherDisplay:10.37,2014-07-13 08:27:00,
2014-07-13 04:32:00,74.7,71.9,29.91,North,0,0.0,0.0,91,0.00,CLR,,0.00,WeatherDisplay:10.37,2014-07-13 08:32:00,
2014-07-13 04:37:00,74.7,71.9,29.91,North,0,0.0,0.0,91,0.00,CLR,,0.00,WeatherDisplay:10.37,2014-07-13 08:37:00,
2014-07-13 04:42:00,74.8,71.7,29.91,North,0,0.0,0.0,90,0.00,CLR,,0.00,WeatherDisplay:10.37,2014-07-13 08:42:00,
2014-07-13 04:47:00,75.0,71.6,29.91,North,0,0.0,0.0,89,0.00,CLR,,0.00,WeatherDisplay:10.37,2014-07-13 08:47:00,
2014-07-13 04:52:00,75.0,71.6,29.91,North,0,0.0,0.0,89,0.00,CLR,,0.00,WeatherDisplay:10.37,2014-07-13 08:52:00,
2014-07-13 04:57:00,75.2,71.7,29.91,North,0,0.0,0.0,89,0.00,CLR,,0.00,WeatherDisplay:10.37,2014-07-13 08:57:00,
2014-07-13 05:02:00,75.4,71.9,29.91,North,0,0.0,0.0,89,0.00,CLR,,0.00,WeatherDisplay:10.37,2014-07-13 09:02:00,
2014-07-13 05:07:00,75.4,71.6,29.91,North,0,0.0,0.0,88,0.00,CLR,,0.00,WeatherDisplay:10.37,2014-07-13 09:07:00,
2014-07-13 05:12:00,75.4,71.6,29.91,North,0,0.0,0.0,88,0.00,CLR,,0.00,WeatherDisplay:10.37,2014-07-13 09:12:00,
2014-07-13 05:17:00,75.6,71.8,29.91,North,0,0.0,0.0,88,0.00,CLR,,0.00,WeatherDisplay:10.37,2014-07-13 09:17:00,
2014-07-13 05:22:00,75.6,71.8,29.91,North,0,0.0,0.0,88,0.00,CLR,,0.00,WeatherDisplay:10.37,2014-07-13 09:22:00,
2014-07-13 05:27:00,75.6,71.8,29.91,North,0,0.0,0.0,88,0.00,CLR,,0.00,WeatherDisplay:10.37,2014-07-13 09:27:00,
2014-07-13 05:32:00,75.6,71.8,29.91,North,0,0.0,0.0,88,0.00,CLR,,0.00,WeatherDisplay:10.37,2014-07-13 09:32:00,
2014-07-13 05:37:00,75.6,71.8,29.91,North,0,0.0,0.0,88,0.00,CLR,,0.00,WeatherDisplay:10.37,2014-07-13 09:37:00,
2014-07-13 05:42:00,75.6,71.4,29.91,North,0,0.0,0.0,87,0.00,CLR,,0.00,WeatherDisplay:10.37,2014-07-13 09:42:00,
2014-07-13 05:47:00,75.6,71.8,29.91,North,0,0.0,0.0,88,0.00,CLR,,0.00,WeatherDisplay:10.37,2014-07-13 09:47:00,
2014-07-13 05:52:00,75.6,71.8,29.91,North,0,0.0,0.0,88,0.00,CLR,,0.00,WeatherDisplay:10.37,2014-07-13 09:52:00,
2014-07-13 05:57:00,75.4,71.6,29.91,North,0,0.0,0.0,88,0.00,CLR,,0.00,WeatherDisplay:10.37,2014-07-13 09:57:00,
2014-07-13 06:02:00,75.4,71.9,29.91,North,0,0.0,0.0,89,0.00,CLR,,0.00,WeatherDisplay:10.37,2014-07-13 10:02:00,
2014-07-13 06:07:00,75.4,71.9,29.91,North,0,0.0,0.0,89,0.00,CLR,,0.00,WeatherDisplay:10.37,2014-07-13 10:07:00,
2014-07-13 06:12:00,75.4,71.9,29.91,North,0,0.0,0.0,89,0.00,CLR,,0.00,WeatherDisplay:10.37,2014-07-13 10:12:00,
2014-07-13 06:17:00,75.2,71.4,29.91,North,0,0.0,0.0,88,0.00,CLR,,0.00,WeatherDisplay:10.37,2014-07-13 10:17:00,
2014-07-13 06:22:00,75.0,71.6,29.91,North,0,0.0,0.0,89,0.00,CLR,,0.00,WeatherDisplay:10.37,2014-07-13 10:22:00,
2014-07-13 06:27:00,75.0,71.9,29.91,North,0,0.0,0.0,90,0.00,CLR,,0.00,WeatherDisplay:10.37,2014-07-13 10:27:00,
2014-07-13 06:32:00,75.0,71.9,29.91,North,0,0.0,0.0,90,0.00,CLR,,0.00,WeatherDisplay:10.37,2014-07-13 10:32:00,
2014-07-13 06:37:00,75.0,71.9,29.91,North,0,0.0,0.0,90,0.00,CLR,,0.00,WeatherDisplay:10.37,2014-07-13 10:37:00,
2014-07-13 06:42:00,75.0,72.2,29.92,North,0,0.0,0.0,91,0.00,CLR,,0.00,WeatherDisplay:10.37,2014-07-13 10:42:00,
2014-07-13 06:47:00,75.0,72.2,29.92,North,0,0.0,0.0,91,0.00,CLR,,0.00,WeatherDisplay:10.37,2014-07-13 10:47:00,
2014-07-13 06:52:00,75.0,72.2,29.92,North,0,0.0,0.0,91,0.00,CLR,,0.00,WeatherDisplay:10.37,2014-07-13 10:52:00,
2014-07-13 06:57:00,75.0,72.5,29.92,North,0,0.0,0.0,92,0.00,CLR,,0.00,WeatherDisplay:10.37,2014-07-13 10:57:00,
2014-07-13 07:02:00,75.2,72.7,29.91,North,0,0.0,0.0,92,0.00,CLR,,0.00,WeatherDisplay:10.37,2014-07-13 11:02:00,
2014-07-13 07:07:00,75.4,72.9,29.92,North,0,0.0,0.0,92,0.00,CLR,,0.00,WeatherDisplay:10.37,2014-07-13 11:07:00,
2014-07-13 07:12:00,75.4,72.9,29.91,North,0,0.0,0.0,92,0.00,CLR,,0.00,WeatherDisplay:10.37,2014-07-13 11:12:00,
2014-07-13 07:17:00,75.6,73.1,29.91,North,0,0.0,0.0,92,0.00,CLR,,0.00,WeatherDisplay:10.37,2014-07-13 11:17:00,
2014-07-13 07:22:00,75.7,73.2,29.91,North,0,0.0,0.0,92,0.00,CLR,,0.00,WeatherDisplay:10.37,2014-07-13 11:22:00,
2014-07-13 07:27:00,75.7,73.2,29.91,North,0,0.0,0.0,92,0.00,CLR,,0.00,WeatherDisplay:10.37,2014-07-13 11:27:00,
2014-07-13 07:32:00,75.9,73.1,29.91,North,0,0.0,0.0,91,0.00,CLR,,0.00,WeatherDisplay:10.37,2014-07-13 11:32:00,
2014-07-13 07:37:00,75.9,73.1,29.91,North,0,0.0,0.0,91,0.00,CLR,,0.00,WeatherDisplay:10.37,2014-07-13 11:37:00,
2014-07-13 07:42:00,75.9,72.8,29.91,North,0,0.0,0.0,90,0.00,CLR,,0.00,WeatherDisplay:10.37,2014-07-13 11:42:00,
2014-07-13 07:47:00,76.1,73.3,29.91,North,0,0.0,0.0,91,0.00,CLR,,0.00,WeatherDisplay:10.37,2014-07-13 11:47:00,
2014-07-13 07:52:00,76.1,73.6,29.91,North,0,0.0,0.0,92,0.00,CLR,,0.00,WeatherDisplay:10.37,2014-07-13 11:52:00,
2014-07-13 07:57:00,76.3,73.5,29.91,North,0,0.0,0.0,91,0.00,CLR,,0.00,WeatherDisplay:10.37,2014-07-13 11:57:00,
2014-07-13 08:02:00,76.5,74.0,29.91,North,0,0.0,0.0,92,0.00,CLR,,0.00,WeatherDisplay:10.37,2014-07-13 12:02:00,
2014-07-13 08:07:00,76.6,73.8,29.91,North,0,0.0,0.0,91,0.00,CLR,,0.00,WeatherDisplay:10.37,2014-07-13 12:07:00,
2014-07-13 08:12:00,76.8,74.0,29.91,North,0,0.0,0.0,91,0.00,CLR,,0.00,WeatherDisplay:10.37,2014-07-13 12:12:00,
2014-07-13 08:17:00,77.0,74.2,29.91,North,0,0.0,0.0,91,0.00,CLR,,0.00,WeatherDisplay:10.37,2014-07-13 12:17:00,
2014-07-13 08:22:00,77.2,74.3,29.91,North,0,0.0,0.0,91,0.00,CLR,,0.00,WeatherDisplay:10.37,2014-07-13 12:22:00,
2014-07-13 08:27:00,77.2,74.0,29.91,North,0,0.0,0.0,90,0.00,CLR,,0.00,WeatherDisplay:10.37,2014-07-13 12:27:00,
2014-07-13 08:32:00,77.4,74.2,29.91,North,0,0.0,0.0,90,0.00,CLR,,0.00,WeatherDisplay:10.37,2014-07-13 12:32:00,
2014-07-13 08:37:00,77.5,74.4,29.91,North,0,0.0,0.0,90,0.00,CLR,,0.00,WeatherDisplay:10.37,2014-07-13 12:37:00,
2014-07-13 08:42:00,77.5,74.4,29.91,North,0,0.0,0.0,90,0.00,CLR,,0.00,WeatherDisplay:10.37,2014-07-13 12:42:00,
2014-07-13 08:47:00,77.5,74.4,29.91,North,0,0.0,0.0,90,0.00,CLR,,0.00,WeatherDisplay:10.37,2014-07-13 12:47:00,
2014-07-13 08:52:00,77.5,74.4,29.91,North,0,0.0,0.0,90,0.00,CLR,,0.00,WeatherDisplay:10.37,2014-07-13 12:52:00,
2014-07-13 08:57:00,77.7,74.6,29.92,North,0,0.0,0.0,90,0.00,CLR,,0.00,WeatherDisplay:10.37,2014-07-13 12:57:00,
2014-07-13 09:02:00,77.9,74.7,29.91,North,0,0.0,0.0,90,0.00,CLR,,0.00,WeatherDisplay:10.37,2014-07-13 13:02:00,
2014-07-13 09:07:00,78.4,75.3,29.91,North,0,0.0,0.0,90,0.00,CLR,,0.00,WeatherDisplay:10.37,2014-07-13 13:07:00,
2014-07-13 09:12:00,79.3,76.1,29.92,North,0,0.0,0.0,90,0.00,CLR,,0.00,WeatherDisplay:10.37,2014-07-13 13:12:00,
2014-07-13 09:17:00,80.2,75.7,29.91,North,0,0.0,0.0,86,0.00,CLR,,0.00,WeatherDisplay:10.37,2014-07-13 13:17:00,
2014-07-13 09:22:00,80.6,75.0,29.91,North,0,0.0,0.0,83,0.00,CLR,,0.00,WeatherDisplay:10.37,2014-07-13 13:22:00,
2014-07-13 09:27:00,80.4,74.8,29.91,North,0,0.0,0.0,83,0.00,CLR,,0.00,WeatherDisplay:10.37,2014-07-13 13:27:00,
2014-07-13 09:32:00,80.4,74.8,29.91,North,0,0.0,0.0,83,0.00,CLR,,0.00,WeatherDisplay:10.37,2014-07-13 13:32:00,
2014-07-13 09:37:00,80.2,74.6,29.91,North,0,0.0,0.0,83,0.00,CLR,,0.00,WeatherDisplay:10.37,2014-07-13 13:37:00,
2014-07-13 09:42:00,80.8,75.8,29.91,North,0,0.0,0.0,85,0.00,CLR,,0.00,WeatherDisplay:10.37,2014-07-13 13:42:00,
2014-07-13 09:47:00,81.1,75.1,29.91,North,0,0.0,0.0,82,0.00,CLR,,0.00,WeatherDisplay:10.37,2014-07-13 13:47:00,
2014-07-13 09:52:00,81.0,74.9,29.91,North,0,0.0,0.0,82,0.00,CLR,,0.00,WeatherDisplay:10.37,2014-07-13 13:52:00,
2014-07-13 09:57:00,81.3,75.7,29.91,North,0,0.0,0.0,83,0.00,CLR,,0.00,WeatherDisplay:10.37,2014-07-13 13:57:00,
2014-07-13 10:02:00,81.9,75.5,29.91,North,0,0.0,0.0,81,0.00,CLR,,0.00,WeatherDisplay:10.37,2014-07-13 14:02:00,
2014-07-13 10:07:00,82.0,75.6,29.90,North,0,0.0,0.0,81,0.00,CLR,,0.00,WeatherDisplay:10.37,2014-07-13 14:07:00,
2014-07-13 10:12:00,81.7,74.5,29.90,North,0,0.0,0.0,79,0.00,CLR,,0.00,WeatherDisplay:10.37,2014-07-13 14:12:00,
2014-07-13 10:17:00,81.3,74.6,29.90,North,0,0.0,0.0,80,0.00,CLR,,0.00,WeatherDisplay:10.37,2014-07-13 14:17:00,
2014-07-13 10:22:00,81.3,74.9,29.89,North,0,0.0,0.0,81,0.00,CLR,,0.00,WeatherDisplay:10.37,2014-07-13 14:22:00,
2014-07-13 10:27:00,82.0,74.9,29.89,North,0,0.0,0.0,79,0.00,CLR,,0.00,WeatherDisplay:10.37,2014-07-13 14:27:00,
2014-07-13 10:32:00,82.9,75.0,29.89,North,0,0.0,0.0,77,0.00,CLR,,0.00,WeatherDisplay:10.37,2014-07-13 14:32:00,
2014-07-13 10:37:00,83.7,74.9,29.89,North,0,0.0,0.0,75,0.00,CLR,,0.00,WeatherDisplay:10.37,2014-07-13 14:37:00,
2014-07-13 10:42:00,84.4,75.2,29.89,North,0,0.0,0.0,74,0.00,CLR,,0.00,WeatherDisplay:10.37,2014-07-13 14:42:00,
2014-07-13 10:47:00,84.4,74.8,29.89,North,0,0.0,0.0,73,0.00,CLR,,0.00,WeatherDisplay:10.37,2014-07-13 14:47:00,
2014-07-13 10:52:00,84.9,74.9,29.89,North,0,0.0,0.0,72,0.00,CLR,,0.00,WeatherDisplay:10.37,2014-07-13 14:52:00,
2014-07-13 10:57:00,84.7,74.3,29.88,North,0,0.0,0.0,71,0.00,CLR,,0.00,WeatherDisplay:10.37,2014-07-13 14:57:00,
2014-07-13 11:02:00,84.9,74.9,29.89,North,0,0.0,0.0,72,0.00,CLR,,0.00,WeatherDisplay:10.37,2014-07-13 15:02:00,
2014-07-13 11:07:00,85.5,75.8,29.89,North,0,0.0,0.0,73,0.00,CLR,,0.00,WeatherDisplay:10.37,2014-07-13 15:07:00,
2014-07-13 11:12:00,86.2,74.4,29.88,North,0,0.0,0.0,68,0.00,CLR,,0.00,WeatherDisplay:10.37,2014-07-13 15:12:00,
2014-07-13 11:17:00,85.1,74.2,29.89,North,0,0.0,0.0,70,0.00,CLR,,0.00,WeatherDisplay:10.37,2014-07-13 15:17:00,
2014-07-13 11:22:00,84.4,73.9,29.89,North,0,0.0,0.0,71,0.00,CLR,,0.00,WeatherDisplay:10.37,2014-07-13 15:22:00,
2014-07-13 11:27:00,84.0,74.4,29.89,North,0,0.0,0.0,73,0.00,CLR,,0.00,WeatherDisplay:10.37,2014-07-13 15:27:00,
2014-07-13 11:32:00,84.4,75.2,29.89,North,0,0.0,0.0,74,0.00,CLR,,0.00,WeatherDisplay:10.37,2014-07-13 15:32:00,
2014-07-13 11:37:00,84.0,74.0,29.89,North,0,0.0,0.0,72,0.00,CLR,,0.00,WeatherDisplay:10.37,2014-07-13 15:37:00,
2014-07-13 11:42:00,84.0,75.2,29.88,North,0,0.0,0.0,75,0.00,CLR,,0.00,WeatherDisplay:10.37,2014-07-13 15:42:00,
2014-07-13 11:47:00,84.6,74.9,29.89,North,0,0.0,0.0,73,0.00,CLR,,0.00,WeatherDisplay:10.37,2014-07-13 15:47:00,
2014-07-13 11:52:00,85.1,75.5,29.89,North,0,0.0,0.0,73,0.00,CLR,,0.00,WeatherDisplay:10.37,2014-07-13 15:52:00,
2014-07-13 11:57:00,85.3,74.8,29.89,North,0,0.0,0.0,71,0.00,CLR,,0.00,WeatherDisplay:10.37,2014-07-13 15:57:00,
2014-07-13 12:02:00,85.8,74.9,29.89,North,0,0.0,0.0,70,0.00,CLR,,0.00,WeatherDisplay:10.37,2014-07-13 16:02:00,
2014-07-13 12:07:00,86.4,74.5,29.89,North,0,0.0,0.0,68,0.00,CLR,,0.00,WeatherDisplay:10.37,2014-07-13 16:07:00,
2014-07-13 12:12:00,87.1,75.2,29.89,North,0,0.0,0.0,68,0.00,CLR,,0.00,WeatherDisplay:10.37,2014-07-13 16:12:00,
2014-07-13 12:17:00,86.7,74.0,29.89,North,0,0.0,0.0,66,0.00,CLR,,0.00,WeatherDisplay:10.37,2014-07-13 16:17:00,
2014-07-13 12:22:00,87.4,74.7,29.89,North,0,0.0,0.0,66,0.00,CLR,,0.00,WeatherDisplay:10.37,2014-07-13 16:22:00,
2014-07-13 12:27:00,87.8,74.6,29.89,North,0,0.0,0.0,65,0.00,CLR,,0.00,WeatherDisplay:10.37,2014-07-13 16:27:00,
2014-07-13 12:32:00,88.9,75.1,29.89,North,0,0.0,0.0,64,0.00,CLR,,0.00,WeatherDisplay:10.37,2014-07-13 16:32:00,
2014-07-13 12:37:00,89.4,75.2,29.89,North,0,0.0,0.0,63,0.00,CLR,,0.00,WeatherDisplay:10.37,2014-07-13 16:37:00,
2014-07-13 12:42:00,88.9,73.2,29.89,North,0,0.0,0.0,60,0.00,CLR,,0.00,WeatherDisplay:10.37,2014-07-13 16:42:00,
2014-07-13 12:47:00,88.0,74.3,29.89,North,0,0.0,0.0,64,0.00,CLR,,0.00,WeatherDisplay:10.37,2014-07-13 16:47:00,
2014-07-13 12:52:00,87.6,72.0,29.89,North,0,0.0,0.0,60,0.00,CLR,,0.00,WeatherDisplay:10.37,2014-07-13 16:52:00,
2014-07-13 12:57:00,87.4,72.8,29.89,North,0,0.0,0.0,62,0.00,CLR,,0.00,WeatherDisplay:10.37,2014-07-13 16:57:00,
2014-07-13 13:02:00,88.5,73.8,29.88,North,0,0.0,0.0,62,0.00,CLR,,0.00,WeatherDisplay:10.37,2014-07-13 17:02:00,
2014-07-13 13:07:00,87.6,73.0,29.88,North,0,0.0,0.0,62,0.00,CLR,,0.00,WeatherDisplay:10.37,2014-07-13 17:07:00,
2014-07-13 13:12:00,87.1,73.0,29.88,North,0,0.0,0.0,63,0.00,CLR,,0.00,WeatherDisplay:10.37,2014-07-13 17:12:00,
2014-07-13 13:17:00,88.3,73.2,29.87,North,0,0.0,0.0,61,0.00,CLR,,0.00,WeatherDisplay:10.37,2014-07-13 17:17:00,
2014-07-13 13:22:00,87.4,73.3,29.87,North,0,0.0,0.0,63,0.00,CLR,,0.00,WeatherDisplay:10.37,2014-07-13 17:22:00,
2014-07-13 13:27:00,87.6,73.5,29.87,North,0,0.0,0.0,63,0.00,CLR,,0.00,WeatherDisplay:10.37,2014-07-13 17:27:00,
2014-07-13 13:32:00,88.5,74.3,29.87,North,0,0.0,0.0,63,0.00,CLR,,0.00,WeatherDisplay:10.37,2014-07-13 17:32:00,
2014-07-13 13:37:00,89.1,74.3,29.87,North,0,0.0,0.0,62,0.00,CLR,,0.00,WeatherDisplay:10.37,2014-07-13 17:37:00,
2014-07-13 13:42:00,88.5,72.9,29.86,North,0,0.0,0.0,60,0.00,CLR,,0.00,WeatherDisplay:10.37,2014-07-13 17:42:00,
2014-07-13 13:47:00,88.0,73.3,29.86,North,0,0.0,0.0,62,0.00,CLR,,0.00,WeatherDisplay:10.37,2014-07-13 17:47:00,
2014-07-13 13:52:00,87.4,73.8,29.85,North,0,0.0,0.0,64,0.00,CLR,,0.00,WeatherDisplay:10.37,2014-07-13 17:52:00,
2014-07-13 13:57:00,86.5,73.4,29.86,North,0,0.0,0.0,65,0.00,CLR,,0.00,WeatherDisplay:10.37,2014-07-13 17:57:00,
2014-07-13 14:02:00,86.2,73.0,29.87,North,0,0.0,0.0,65,0.00,CLR,,0.00,WeatherDisplay:10.37,2014-07-13 18:02:00,
2014-07-13 14:07:00,86.5,73.8,29.86,North,0,0.0,0.0,66,0.00,CLR,,0.00,WeatherDisplay:10.37,2014-07-13 18:07:00,
2014-07-13 14:12:00,86.5,74.3,29.86,North,0,0.0,0.0,67,0.00,CLR,,0.00,WeatherDisplay:10.37,2014-07-13 18:12:00,
2014-07-13 14:17:00,86.7,74.4,29.86,North,0,0.0,0.0,67,0.00,CLR,,0.00,WeatherDisplay:10.37,2014-07-13 18:17:00,
2014-07-13 14:22:00,87.3,75.4,29.85,North,0,0.0,0.0,68,0.00,CLR,,0.00,WeatherDisplay:10.37,2014-07-13 18:22:00,
2014-07-13 14:27:00,87.6,74.9,29.85,North,0,0.0,0.0,66,0.00,CLR,,0.00,WeatherDisplay:10.37,2014-07-13 18:27:00,
2014-07-13 14:32:00,87.1,74.3,29.85,North,0,0.0,0.0,66,0.00,CLR,,0.00,WeatherDisplay:10.37,2014-07-13 18:32:00,
2014-07-13 14:37:00,86.4,74.5,29.85,North,0,0.0,0.0,68,0.00,CLR,,0.00,WeatherDisplay:10.37,2014-07-13 18:37:00,
2014-07-13 14:42:00,85.6,73.4,29.85,North,0,0.0,0.0,67,0.00,CLR,,0.00,WeatherDisplay:10.37,2014-07-13 18:42:00,
2014-07-13 14:47:00,83.8,70.8,29.87,North,0,0.0,0.0,65,0.00,CLR,,0.00,WeatherDisplay:10.37,2014-07-13 18:47:00,
2014-07-13 14:52:00,82.2,69.7,29.88,North,0,0.0,0.0,66,0.00,CLR,,0.00,WeatherDisplay:10.37,2014-07-13 18:52:00,
2014-07-13 14:57:00,80.8,74.0,29.89,North,0,0.0,0.0,80,0.02,RA,,0.03,WeatherDisplay:10.37,2014-07-13 18:57:00,
2014-07-13 15:02:00,78.8,76.9,29.90,North,0,0.0,0.0,94,0.15,RA,,0.18,WeatherDisplay:10.37,2014-07-13 19:02:00,
2014-07-13 15:07:00,75.9,75.3,29.89,North,0,0.0,0.0,98,0.43,RA,,0.44,WeatherDisplay:10.37,2014-07-13 19:07:00,
2014-07-13 15:12:00,73.9,73.9,29.87,North,0,0.0,0.0,100,0.54,RA,,0.56,WeatherDisplay:10.37,2014-07-13 19:12:00,
2014-07-13 15:17:00,73.2,72.9,29.86,North,0,0.0,0.0,99,0.60,RA,,0.60,WeatherDisplay:10.37,2014-07-13 19:17:00,
2014-07-13 15:22:00,75.0,74.7,29.86,North,0,0.0,0.0,99,0.60,RA,,0.60,WeatherDisplay:10.37,2014-07-13 19:22:00,
2014-07-13 15:27:00,76.3,75.7,29.85,North,0,0.0,0.0,98,0.60,CLR,,0.60,WeatherDisplay:10.37,2014-07-13 19:27:00,
2014-07-13 15:32:00,77.4,76.8,29.85,North,0,0.0,0.0,98,0.60,CLR,,0.60,WeatherDisplay:10.37,2014-07-13 19:32:00,
2014-07-13 15:37:00,78.3,77.6,29.85,North,0,0.0,0.0,98,0.60,CLR,,0.60,WeatherDisplay:10.37,2014-07-13 19:37:00,
2014-07-13 15:42:00,79.0,78.7,29.85,North,0,0.0,0.0,99,0.60,CLR,,0.60,WeatherDisplay:10.37,2014-07-13 19:42:00,
2014-07-13 15:47:00,79.7,79.1,29.85,North,0,0.0,0.0,98,0.60,CLR,,0.60,WeatherDisplay:10.37,2014-07-13 19:47:00,
2014-07-13 15:52:00,79.9,78.6,29.84,North,0,0.0,0.0,96,0.60,CLR,,0.60,WeatherDisplay:10.37,2014-07-13 19:52:00,
2014-07-13 15:57:00,80.8,78.9,29.84,North,0,0.0,0.0,94,0.58,CLR,,0.60,WeatherDisplay:10.37,2014-07-13 19:57:00,
2014-07-13 16:02:00,81.9,80.0,29.84,North,0,0.0,0.0,94,0.45,CLR,,0.60,WeatherDisplay:10.37,2014-07-13 20:02:00,
2014-07-13 16:07:00,82.0,79.5,29.83,North,0,0.0,0.0,92,0.17,CLR,,0.60,WeatherDisplay:10.37,2014-07-13 20:07:00,
2014-07-13 16:12:00,81.7,78.8,29.85,North,0,0.0,0.0,91,0.06,CLR,,0.60,WeatherDisplay:10.37,2014-07-13 20:12:00,
2014-07-13 16:17:00,81.3,79.1,29.85,North,0,0.0,0.0,93,0.00,CLR,,0.60,WeatherDisplay:10.37,2014-07-13 20:17:00,
2014-07-13 16:22:00,81.1,79.6,29.85,North,0,0.0,0.0,95,0.00,CLR,,0.60,WeatherDisplay:10.37,2014-07-13 20:22:00,
2014-07-13 16:27:00,80.6,79.4,29.85,North,0,0.0,0.0,96,0.00,CLR,,0.60,WeatherDisplay:10.37,2014-07-13 20:27:00,
2014-07-13 16:32:00,80.1,79.1,29.85,North,0,0.0,0.0,97,0.00,CLR,,0.60,WeatherDisplay:10.37,2014-07-13 20:32:00,
2014-07-13 16:37:00,79.3,78.7,29.85,North,0,0.0,0.0,98,0.00,CLR,,0.61,WeatherDisplay:10.37,2014-07-13 20:37:00,
2014-07-13 16:42:00,78.1,76.8,29.83,North,0,0.0,0.0,96,0.11,RA,,0.72,WeatherDisplay:10.37,2014-07-13 20:42:00,
2014-07-13 16:47:00,77.7,77.1,29.85,North,0,0.0,0.0,98,0.16,RA,,0.77,WeatherDisplay:10.37,2014-07-13 20:47:00,
2014-07-13 16:52:00,76.5,75.9,29.87,North,0,0.0,0.0,98,0.35,RA,,0.97,WeatherDisplay:10.37,2014-07-13 20:52:00,
2014-07-13 16:57:00,75.0,74.7,29.88,North,0,0.0,0.0,99,0.53,RA,,1.14,WeatherDisplay:10.37,2014-07-13 20:57:00,
2014-07-13 17:02:00,72.7,72.4,29.86,North,0,0.0,0.0,99,0.73,RA,,1.36,WeatherDisplay:10.37,2014-07-13 21:02:00,
2014-07-13 17:07:00,72.0,72.0,29.86,North,0,0.0,0.0,100,0.93,RA,,1.53,WeatherDisplay:10.37,2014-07-13 21:07:00,
2014-07-13 17:12:00,72.0,72.0,29.86,North,0,0.0,0.0,100,0.94,RA,,1.54,WeatherDisplay:10.37,2014-07-13 21:12:00,
2014-07-13 17:17:00,72.1,72.1,29.85,North,0,0.0,0.0,100,0.95,RA,,1.55,WeatherDisplay:10.37,2014-07-13 21:17:00,
2014-07-13 17:22:00,72.3,72.3,29.84,North,0,0.0,0.0,100,0.95,RA,,1.55,WeatherDisplay:10.37,2014-07-13 21:22:00,
2014-07-13 17:27:00,72.5,72.5,29.85,North,0,0.0,0.0,100,0.95,CLR,,1.55,WeatherDisplay:10.37,2014-07-13 21:27:00,
2014-07-13 17:32:00,73.0,73.0,29.83,North,0,0.0,0.0,100,0.97,RA,,1.58,WeatherDisplay:10.37,2014-07-13 21:32:00,
2014-07-13 17:37:00,73.2,72.9,29.83,North,0,0.0,0.0,99,1.01,RA,,1.61,WeatherDisplay:10.37,2014-07-13 21:37:00,
2014-07-13 17:42:00,73.2,72.9,29.84,North,0,0.0,0.0,99,0.90,RA,,1.61,WeatherDisplay:10.37,2014-07-13 21:42:00,
2014-07-13 17:47:00,73.4,72.8,29.85,North,0,0.0,0.0,98,0.85,,,1.61,WeatherDisplay:10.37,2014-07-13 21:47:00,
2014-07-13 17:52:00,73.6,73.0,29.85,North,0,0.0,0.0,98,0.66,CLR,,1.61,WeatherDisplay:10.37,2014-07-13 21:52:00,
2014-07-13 17:57:00,73.8,73.2,29.84,North,0,0.0,0.0,98,0.48,CLR,,1.61,WeatherDisplay:10.37,2014-07-13 21:57:00,
2014-07-13 18:02:00,74.1,73.2,29.85,North,0,0.0,0.0,97,0.28,CLR,,1.61,WeatherDisplay:10.37,2014-07-13 22:02:00,
2014-07-13 18:07:00,74.3,73.4,29.84,North,0,0.0,0.0,97,0.08,CLR,,1.61,WeatherDisplay:10.37,2014-07-13 22:07:00,
2014-07-13 18:12:00,74.3,73.4,29.84,North,0,0.0,0.0,97,0.07,CLR,,1.61,WeatherDisplay:10.37,2014-07-13 22:12:00,
2014-07-13 18:17:00,74.1,73.2,29.84,North,0,0.0,0.0,97,0.06,CLR,,1.61,WeatherDisplay:10.37,2014-07-13 22:17:00,
2014-07-13 18:22:00,73.9,73.0,29.83,North,0,0.0,0.0,97,0.06,CLR,,1.61,WeatherDisplay:10.37,2014-07-13 22:22:00,
2014-07-13 18:27:00,73.9,73.0,29.83,North,0,0.0,0.0,97,0.06,CLR,,1.61,WeatherDisplay:10.37,2014-07-13 22:27:00,
2014-07-13 18:32:00,73.9,73.0,29.82,North,0,0.0,0.0,97,0.04,CLR,,1.61,WeatherDisplay:10.37,2014-07-13 22:32:00,
2014-07-13 18:37:00,74.1,73.2,29.82,North,0,0.0,0.0,97,0.00,CLR,,1.61,WeatherDisplay:10.37,2014-07-13 22:37:00,
2014-07-13 18:42:00,74.5,73.6,29.82,North,0,0.0,0.0,97,0.00,CLR,,1.61,WeatherDisplay:10.37,2014-07-13 22:42:00,
2014-07-13 18:47:00,74.7,73.4,29.82,North,0,0.0,0.0,96,0.00,CLR,,1.61,WeatherDisplay:10.37,2014-07-13 22:47:00,
2014-07-13 18:52:00,75.2,74.0,29.83,North,0,0.0,0.0,96,0.00,CLR,,1.61,WeatherDisplay:10.37,2014-07-13 22:52:00,
2014-07-13 18:57:00,75.4,74.2,29.83,North,0,0.0,0.0,96,0.00,CLR,,1.61,WeatherDisplay:10.37,2014-07-13 22:57:00,
2014-07-13 19:02:00,75.7,74.5,29.85,North,0,0.0,0.0,96,0.00,CLR,,1.61,WeatherDisplay:10.37,2014-07-13 23:02:00,
2014-07-13 19:07:00,75.9,74.7,29.84,North,0,0.0,0.0,96,0.00,CLR,,1.61,WeatherDisplay:10.37,2014-07-13 23:07:00,
2014-07-13 19:12:00,76.5,74.9,29.84,North,0,0.0,0.0,95,0.00,CLR,,1.61,WeatherDisplay:10.37,2014-07-13 23:12:00,
2014-07-13 19:17:00,76.8,75.3,29.84,North,0,0.0,0.0,95,0.00,CLR,,1.61,WeatherDisplay:10.37,2014-07-13 23:17:00,
2014-07-13 19:22:00,76.5,74.9,29.84,North,0,0.0,0.0,95,0.00,CLR,,1.61,WeatherDisplay:10.37,2014-07-13 23:22:00,
2014-07-13 19:27:00,76.3,74.7,29.84,North,0,0.0,0.0,95,0.00,CLR,,1.61,WeatherDisplay:10.37,2014-07-13 23:27:00,
2014-07-13 19:32:00,76.1,74.6,29.85,North,0,0.0,0.0,95,0.00,CLR,,1.61,WeatherDisplay:10.37,2014-07-13 23:32:00,
2014-07-13 19:37:00,75.9,74.4,29.85,North,0,0.0,0.0,95,0.00,CLR,,1.61,WeatherDisplay:10.37,2014-07-13 23:37:00,
2014-07-13 19:42:00,75.7,74.2,29.85,North,0,0.0,0.0,95,0.00,CLR,,1.61,WeatherDisplay:10.37,2014-07-13 23:42:00,
2014-07-13 19:47:00,75.7,74.2,29.84,North,0,0.0,0.0,95,0.00,CLR,,1.61,WeatherDisplay:10.37,2014-07-13 23:47:00,
2014-07-13 19:52:00,75.7,74.5,29.85,North,0,0.0,0.0,96,0.00,CLR,,1.61,WeatherDisplay:10.37,2014-07-13 23:52:00,